Location: Kapla
(46.2483°N, 15.0094°E)
Time: 21:36:20
(UTC+00:00)

Cosmos 1844 - Pass Details

Date: 03 March 2021
Orbit: 823 x 868 km, 70.9° (Epoch: 22 April)

Event Time Altitude Azimuth Distance (km) Brightness Sun altitude
Rises 18:33:58 0° 332° (NNW) 3,458 7.5 -18.9°
Reaches altitude 10° 18:36:27 10° 331° (NNW) 2,514 6.7 -19.3°
Maximum altitude 18:42:15 80° 246° (WSW) 877 3.8 -20.3°
Enters shadow 18:46:28 19° 161° (SSE) 1,930 5.3 -21.0°
